Weather History for Jersey, United Kingdom

Change the Weather History Date:

Tuesday, October 9, 2012

  Actual Average Record
Temperature  
Mean Temperature 60 °F -  
Max Temperature 62 °F 56 °F 73 °F (2010)
Min Temperature 58 °F 49 °F 48 °F (2005)
Degree Days  
Heating Degree Days 5    
Growing Degree Days 10 (Base 50)    
Moisture  
Dew Point 60 °F    
Average Humidity 100    
Maximum Humidity 100    
Minimum Humidity 98    
Precipitation  
Precipitation 0.00 in - - ()
Sea Level Pressure  
Sea Level Pressure 29.93 in    
Wind  
Wind Speed 5 mph ()    
Max Wind Speed 10 mph    
Max Gust Speed -    
Visibility 1.7 miles    
Events Fog , Rain    
Averages and records for this station are not official NWS values.
T = Trace of Precipitation, MM = Missing Value Source: Averaged Metar Reports

Daily Weather History Graph

Daily Weather History Graph

Search for Another Location

Airport:

Trip Planner

Search our weather history database for the weather conditions in past years. The results will help you decide how hot, cold, wet, or windy it might be!

Date:

Astronomy

Oct. 09, 2012 Rise Set
Actual Time 7:20 AM BST 6:30 PM BST
Civil Twilight 6:49 AM BST 7:01 PM BST
Nautical Twilight 6:12 AM BST 7:38 PM BST
Astronomical Twilight 5:35 AM BST 8:15 PM BST
Moon 12:11 AM BST (10/9) 3:17 PM BST (10/9)
Length of Visible Light 12h 12m
Length of Day
11h 09m
Last Quarter, 39% of the Moon is Illuminated
Oct 9
Last Quarter
Oct 15
New
Oct 22
First Quarter
Oct 29
Full
Nov 7
Last Quarter

Hourly Weather History & Observations

Time (BST) Temp. Dew Point Humidity Pressure Visibility Wind Dir Wind Speed Gust Speed Precip Events Conditions
1:00 AM 60 °F 60 °F 98% 29.93 in 0 mi WNW 10.4 mph - - Fog Partial Fog
3:50 AM 59.0 °F 59.0 °F 100% 29.92 in 0.1 mi WNW 5.8 mph - N/A Fog Fog
4:00 AM 60 °F 60 °F 98% 29.93 in 0 mi WNW 8.1 mph - - Fog Partial Fog
4:20 AM 59.0 °F 59.0 °F 100% 29.92 in 0.1 mi West 5.8 mph - N/A Fog Fog
4:50 AM 59.0 °F 59.0 °F 100% 29.92 in 0.1 mi WNW 5.8 mph - N/A Fog Fog
5:20 AM 60.8 °F 60.8 °F 100% 29.92 in 0.1 mi West 6.9 mph - N/A Fog Fog
5:50 AM 59.0 °F 59.0 °F 100% 29.92 in 0.5 mi WNW 3.5 mph - N/A Fog Fog
6:20 AM 59.0 °F 59.0 °F 100% 29.92 in 0.6 mi NNW 2.3 mph - N/A Fog Patches of Fog
6:50 AM 59.0 °F 59.0 °F 100% 29.92 in 0.2 mi NNE 2.3 mph - N/A Fog Fog
7:00 AM 59 °F 59 °F 100% 29.94 in 0 mi NNE 2.3 mph - - Fog Partial Fog
7:20 AM 59.0 °F 59.0 °F 100% 29.92 in 0.7 mi NE 1.2 mph - N/A Fog Mostly Cloudy
7:50 AM 59.0 °F 59.0 °F 100% 29.92 in 0.5 mi South 3.5 mph - N/A Fog Patches of Fog
8:20 AM 60.8 °F 60.8 °F 100% 29.95 in 0.3 mi SE 4.6 mph - N/A Fog Light Drizzle
8:50 AM 60.8 °F 60.8 °F 100% 29.95 in 0.3 mi SE 5.8 mph - N/A Fog Light Drizzle
9:20 AM 60.8 °F 60.8 °F 100% 29.95 in 0.6 mi SE 5.8 mph - N/A Rain Light Rain
9:50 AM 60.8 °F 60.8 °F 100% 29.95 in 0.5 mi SSE 5.8 mph - N/A Fog , Rain Light Rain
10:00 AM 61 °F 61 °F 98% 29.96 in 0 mi SSE 5.8 mph - - Rain Light Rain
10:20 AM 60.8 °F 60.8 °F 100% 29.95 in 0.4 mi SSE 6.9 mph - N/A Fog Light Drizzle
10:50 AM 60.8 °F 60.8 °F 100% 29.95 in 0.4 mi South 6.9 mph - N/A Fog Light Drizzle
11:20 AM 60.8 °F 60.8 °F 100% 29.95 in 0.5 mi SSW 6.9 mph - N/A Fog , Rain Light Rain
11:50 AM 62.6 °F 62.6 °F 100% 29.95 in 0.5 mi WSW 8.1 mph - N/A Fog Patches of Fog
12:20 PM 62.6 °F 62.6 °F 100% 29.95 in 0.1 mi West 6.9 mph - N/A Fog Fog
12:50 PM 62.6 °F 62.6 °F 100% 29.95 in 0.1 mi West 6.9 mph - N/A Fog Fog
1:00 PM 62 °F 62 °F 98% 29.96 in 0 mi West 8.1 mph - - Fog Partial Fog
1:20 PM 60.8 °F 60.8 °F 100% 29.95 in 0.4 mi WSW 6.9 mph - N/A Fog Fog
1:50 PM 62.6 °F 62.6 °F 100% 29.95 in 0.2 mi WSW 8.1 mph - N/A Fog Fog
2:20 PM 62.6 °F 62.6 °F 100% 29.92 in 2.5 mi West 6.9 mph - N/A Fog Patches of Fog
2:50 PM 62.6 °F 62.6 °F 100% 29.92 in 1.2 mi WSW 4.6 mph - N/A Fog Mostly Cloudy
3:20 PM 60.8 °F 60.8 °F 100% 29.92 in 5.0 mi West 6.9 mph - N/A Fog Mostly Cloudy
3:50 PM 60.8 °F 60.8 °F 100% 29.92 in 3.7 mi WSW 6.9 mph - N/A Fog Light Drizzle
4:00 PM 61 °F 61 °F 100% 29.94 in 1 mi West 6.9 mph - - Rain Light Drizzle
4:20 PM 60.8 °F 60.8 °F 100% 29.92 in 1.6 mi West 4.6 mph - N/A Fog Light Drizzle
4:50 PM 60.8 °F 60.8 °F 100% 29.92 in 0.2 mi WNW 5.8 mph - N/A Fog Light Drizzle
5:20 PM 60.8 °F 60.8 °F 100% 29.92 in 0.3 mi WNW 4.6 mph - N/A Fog , Rain Light Rain
5:50 PM 60.8 °F 60.8 °F 100% 29.92 in 6.2 mi Variable 2.3 mph - N/A   Mostly Cloudy
6:20 PM 60.8 °F 60.8 °F 100% 29.92 in 4.3 mi NNW 2.3 mph - N/A   Mostly Cloudy
6:50 PM 60.8 °F 60.8 °F 100% 29.92 in 3.7 mi NW 2.3 mph - N/A   Mostly Cloudy
7:00 PM 60 °F 60 °F 100% 29.94 in 2 mi NW 3.5 mph - - Fog Light Fog
7:20 PM 60.8 °F 60.8 °F 100% 29.92 in 3.7 mi NNW 3.5 mph - N/A   Mostly Cloudy
7:50 PM 59.0 °F 59.0 °F 100% 29.92 in 3.1 mi NW 3.5 mph - N/A   Mostly Cloudy
8:20 PM 59.0 °F 59.0 °F 100% 29.92 in 0.7 mi NW 4.6 mph - N/A Fog Patches of Fog
8:50 PM 59.0 °F 59.0 °F 100% 29.92 in 5.6 mi NW 2.3 mph - N/A Fog Patches of Fog
9:20 PM 59.0 °F 59.0 °F 100% 29.95 in 6.2 mi NNW 1.2 mph - N/A   Mostly Cloudy
9:50 PM 59.0 °F 59.0 °F 100% 29.92 in 6.2 mi Calm Calm - N/A   Mostly Cloudy
10:00 PM 58 °F 58 °F 100% 29.95 in 6 mi North 2.3 mph - - Fog Light Fog
10:20 PM 59.0 °F 59.0 °F 100% 29.92 in 6.2 mi Calm Calm - N/A   Mostly Cloudy